Location: Blackie
(50.6050°N, 113.6230°W)
Time: 08:31:47
(UTC+00:00)

N. Korean satellite - Pass Details

Date: 07 December 2021
Orbit: 446 x 491 km, 97.3° (Epoch: 18 January)

Event Time Altitude Azimuth Distance (km) Brightness Sun altitude
Rises 14:15:48 0° 357° (N) 2,469 9.9 -9.9°
Reaches altitude 10° 14:18:36 10° 330° (NNW) 1,587 8.7 -9.5°
Maximum altitude 14:20:23 14° 299° (WNW) 1,369 8.2 -9.2°
Drops below altitude 10° 14:22:09 10° 267° (W) 1,578 8.6 -9.0°
Sets 14:24:56 0° 240° (WSW) 2,445 9.8 -8.6°
